Terug naar catalogus

DMSP 5D-2 F14 DEB

ActiefPO
NORAD 62937·DEBRIS·🇺🇸 United States

Gelanceerd Apr 4, 1997 vanaf Vandenberg Space Force Base

Loading…

Volgende Passages (komende 24 uur)

TLE

VersSource: Space-Track

Epoch: Sep 13, 2026, 17:58 UTC

1 62937U 97012H   26256.74903829  .00029180  00000-0  66319-2 0  9996
2 62937  99.0202 328.4662 0024913 144.4109 215.8754 14.55693018 90838

Volg DMSP 5D-2 F14 DEB in realtime met AllMySat

Download on the App Store